CAPE
746 994 929 818 536 396 277 204 249 324 330 277 240 236 259 289 258 293 324 373 403 279 162 109 27 0 0 0 0 16 9 6
509 287 508 362 184 171 179 155 196 211 195 165 172 184 224 255 282 328 292 266 242 89 34 0 0 0 0 0 0 0 0 4
193 286 109 63 49 219 215 238 220 144 128 97 34 55 34 123 283 276 141 88 87 3 0 0 0 0 0 0 0 0 0 0
186 178 69 25 3 143 213 161 135 66 56 88 16 67 139 110 148 98 17 0 0 0 0 0 0 0 0 0 0 0 0 0
206 183 137 1 87 93 145 138 114 107 162 126 163 195 225 211 73 18 0 0 0 0 0 0 0 0 0 0 0 0 0 0
176 141 4 4 5 0 17 118 125 129 171 374 482 293 403 306 122 57 7 0 2 0 3 4 2 0 0 0 0 0 0 0
176 128 31 8 3 1 2 52 131 224 306 401 407 411 617 537 483 88 29 3 7 5 9 0 0 0 0 0 0 0 0 0
83 19 8 4 80 81 113 190 227 291 335 506 728 826 625 614 229 57 28 20 9 0 2 0 0 0 0 0 0 0 0 0
34 4 3 0 2 3 1 146 233 267 549 885 599 613 492 412 194 165 38 2 0 4 1 0 0 0 0 0 0 0 0 0
7 1 1 3 28 58 57 160 301 484 511 749 640 549 457 452 273 106 0 3 0 0 0 0 0 0 0 0 0 0 0 0
3 25 13 99 188 200 190 348 633 591 669 618 565 490 430 328 197 5 0 0 0 0 0 0 0 0 0 0 0 0 0 0
75 137 194 270 408 356 319 364 576 677 788 711 597 512 361 268 98 0 0 0 0 0 0 0 0 0 0 0 0 0 0 0
26 147 213 457 491 305 199 232 485 655 611 649 616 431 310 231 45 3 0 0 0 0 0 0 0 0 0 0 0 0 0 0
19 200 407 526 398 169 75 224 568 713 665 516 329 43 45 175 37 0 0 0 0 0 0 0 0 0 0 0 0 0 0 0
122 313 525 716 383 73 132 550 417 477 497 366 182 67 84 57 0 0 0 0 0 0 0 0 2 0 0 0 0 0 0 0
366 505 640 742 956 238 313 583 521 508 528 232 30 54 24 44 3 0 0 0 0 0 0 0 0 0 2 0 0 0 0 0
426 522 591 740 827 781 495 479 449 554 449 94 64 53 49 15 2 0 0 0 0 0 0 5 3 0 0 0 0 0 0 0
987 530 575 796 1129 1065 875 667 556 478 204 38 50 0 0 23 1 3 2 0 0 0 3 1 1 2 0 0 0 0 0 0
1111 842 822 883 1192 1245 1272 1082 887 479 143 30 71 63 35 58 1 1 2 0 0 1 2 14 8 13 0 0 0 0 0 0
1012 1000 935 849 925 1060 1010 997 783 404 202 73 56 55 85 47 0 6 1 0 0 1 1 2 16 19 0 0 0 0 0 0
CIN
-1 -1 -4 -0 -0 -1 -16 -52 -45 -24 -42 -61 -90 -96 -106 -70 -76 -58 -60 -31 -30 -40 -61 -75 -143 -0 -0 -0 -0 -75 -0 -0
-10 -37 -12 -21 -37 -18 -0 -5 -4 -30 -65 -115 -168 -131 -123 -84 -67 -53 -66 -64 -56 -100 -163 -0 -0 -0 -0 -0 -0 -0 -0 -0
-0 -0 -0 -6 -22 -9 -13 -4 -1 -61 -80 -173 -234 -186 -197 -72 -68 -69 -89 -110 -114 -56 -0 -0 -0 -0 -0 -0 -0 -0 -0 -0
-9 -0 -6 -6 -0 -8 -4 -7 -14 -40 -120 -98 -150 -121 -58 -69 -96 -115 -206 -0 -0 -0 -0 -0 -0 -0 -0 -0 -0 -0 -0 -0
-0 -0 -0 -0 -2 -8 -20 -1 -0 -4 -12 -48 -45 -28 -31 -40 -99 -113 -0 -0 -0 -0 -0 -0 -0 -0 -0 -0 -0 -0 -0 -0
-0 -0 -18 -5 -0 -0 -4 -10 -0 -5 -6 -1 -3 -17 -1 -1 -32 -30 -5 -0 -3 -0 -10 -8 -14 -0 -0 -0 -0 -0 -0 -0
-0 -0 -3 -0 -0 -0 -15 -19 -4 -9 -0 -1 -6 -2 -5 -2 -0 -10 -15 -4 -4 -7 -6 -0 -0 -0 -0 -0 -0 -0 -0 -0
-0 -13 -10 -0 -6 -16 -35 -19 -5 -0 -7 -1 -0 -2 -8 -1 -5 -26 -49 -3 -5 -0 -11 -0 -0 -0 -0 -0 -0 -0 -0 -0
-8 -0 -0 -0 -0 -0 -1 -2 -4 -12 -14 -0 -0 -2 -0 -8 -21 -15 -8 -0 -0 -6 -0 -0 -0 -0 -0 -0 -0 -0 -0 -0
-0 -0 -0 -0 -14 -6 -16 -0 -2 -3 -0 -10 -0 -0 -11 -7 -2 -0 -0 -3 -0 -0 -0 -0 -0 -0 -0 -0 -0 -0 -0 -0
-0 -0 -17 -0 -0 -0 -0 -0 -2 -4 -6 -2 -0 -3 -5 -0 -0 -8 -0 -0 -0 -0 -0 -0 -0 -0 -0 -0 -0 -0 -0 -0
-1 -0 -2 -1 -0 -0 -0 -4 -0 -0 -0 -0 -0 -0 -4 -1 -2 -0 -0 -0 -0 -0 -0 -0 -0 -0 -0 -0 -0 -0 -0 -0
-2 -0 -4 -0 -0 -0 -0 -0 -0 -0 -0 -0 -0 -0 -3 -0 -4 -20 -0 -0 -0 -0 -0 -0 -0 -0 -0 -0 -0 -0 -0 -0
-19 -0 -0 -0 -0 -0 -7 -0 -0 -0 -0 -0 -7 -35 -17 -2 -8 -0 -0 -0 -0 -0 -0 -0 -0 -0 -0 -0 -0 -0 -0 -0
-26 -0 -0 -0 -0 -12 -3 -0 -0 -0 -0 -0 -27 -5 -15 -14 -0 -0 -0 -0 -0 -0 -0 -0 -0 -0 -0 -0 -0 -0 -0 -0
-0 -0 -0 -0 -0 -3 -0 -0 -0 -0 -0 -18 -9 -10 -5 -1 -0 -0 -0 -0 -0 -0 -0 -0 -0 -0 -0 -0 -0 -0 -0 -0
-15 -7 -1 -0 -0 -2 -0 -0 -1 -1 -5 -45 -3 -15 -0 -2 -2 -0 -0 -0 -0 -0 -0 -1 -0 -0 -0 -0 -0 -0 -0 -0
-0 -12 -4 -0 -2 -0 -0 -0 -0 -1 -38 -4 -15 -6 -0 -7 -38 -0 -0 -0 -0 -0 -0 -1 -0 -0 -0 -0 -0 -0 -0 -0
-5 -8 -0 -0 -0 -0 -0 -0 -0 -15 -42 -8 -17 -17 -15 -3 -19 -0 -0 -0 -0 -0 -1 -0 -0 -1 -0 -0 -0 -0 -0 -0
-35 -31 -29 -12 -12 -15 -6 -5 -0 -20 -27 -36 -9 -4 -0 -3 -0 -1 -0 -0 -0 -0 -0 -0 -3 -0 -0 -0 -0 -0 -0 -0
Wind_Speed
40 35 41 38 39 38 39 39 38 38 39 39 39 46 47 38 40 41 41 38 33 31 27 27 nan nan nan nan nan nan nan nan
34 32 32 32 35 46 41 36 35 42 47 45 43 43 46 37 37 41 40 36 32 nan nan nan nan nan nan nan nan nan nan nan
25 27 34 nan nan 49 48 43 35 41 39 nan nan nan nan 34 46 39 36 nan nan nan nan nan nan nan nan nan nan nan nan nan
36 36 nan nan nan 46 51 50 42 nan nan nan nan nan 32 37 42 nan nan nan nan nan nan nan nan nan nan nan nan nan nan nan
36 39 45 nan nan nan 40 32 41 27 33 52 46 40 39 30 nan nan nan nan nan nan nan nan nan nan nan nan nan nan nan nan
40 41 nan nan nan nan nan 35 35 39 28 46 38 38 29 21 12 nan nan nan nan nan nan nan nan nan nan nan nan nan nan nan
40 40 nan nan nan nan nan nan 37 42 35 40 41 26 16 13 15 nan nan nan nan nan nan nan nan nan nan nan nan nan nan nan
nan nan nan nan nan nan 32 37 39 36 40 50 30 21 15 10 12 nan nan nan nan nan nan nan nan nan nan nan nan nan nan nan
nan nan nan nan nan nan nan 22 32 42 23 20 18 11 9 10 12 16 nan nan nan nan nan nan nan nan nan nan nan nan nan nan
nan nan nan nan nan nan nan 28 34 24 20 13 7 4 7 12 15 17 nan nan nan nan nan nan nan nan nan nan nan nan nan nan
nan nan nan nan 5 6 10 7 12 13 9 7 2 8 11 13 16 nan nan nan nan nan nan nan nan nan nan nan nan nan nan nan
nan 5 6 4 3 11 15 6 3 5 3 2 6 13 12 13 nan nan nan nan nan nan nan nan nan nan nan nan nan nan nan nan
nan 3 3 7 8 7 4 2 3 6 8 8 13 14 9 11 nan nan nan nan nan nan nan nan nan nan nan nan nan nan nan nan
nan 14 9 9 7 4 nan 7 10 9 12 14 16 nan nan 13 nan nan nan nan nan nan nan nan nan nan nan nan nan nan nan nan
17 14 11 10 7 nan 11 16 14 15 15 18 17 nan nan nan nan nan nan nan nan nan nan nan nan nan nan nan nan nan nan nan
16 17 17 15 10 16 15 20 17 15 17 20 nan nan nan nan nan nan nan nan nan nan nan nan nan nan nan nan nan nan nan nan
18 16 15 21 19 10 18 13 17 21 22 nan nan nan nan nan nan nan nan nan nan nan nan nan nan nan nan nan nan nan nan nan
20 19 17 18 23 18 23 19 21 25 21 nan nan nan nan nan nan nan nan nan nan nan nan nan nan nan nan nan nan nan nan nan
21 22 20 22 25 24 22 23 23 26 25 nan nan nan nan nan nan nan nan nan nan nan nan nan nan nan nan nan nan nan nan nan
28 26 23 24 22 23 23 32 25 30 22 nan nan nan nan nan nan nan nan nan nan nan nan nan nan nan nan nan nan nan nan nan
Wind_Direction
253 250 256 257 260 260 261 269 274 273 277 271 267 270 275 264 249 251 245 250 254 259 260 264 nan nan nan nan nan nan nan nan
209 233 252 258 252 246 241 247 263 270 271 270 269 272 266 259 242 241 240 246 256 nan nan nan nan nan nan nan nan nan nan nan
266 249 250 nan nan 259 245 241 244 273 273 nan nan nan nan 258 244 243 248 nan nan nan nan nan nan nan nan nan nan nan nan nan
273 280 nan nan nan 241 252 255 256 nan nan nan nan nan 262 258 246 nan nan nan nan nan nan nan nan nan nan nan nan nan nan nan
277 276 273 nan nan nan 276 254 282 286 296 269 265 262 265 255 nan nan nan nan nan nan nan nan nan nan nan nan nan nan nan nan
283 282 nan nan nan nan nan 271 276 276 286 279 251 259 249 245 211 nan nan nan nan nan nan nan nan nan nan nan nan nan nan nan
271 279 nan nan nan nan nan nan 271 270 287 285 265 251 191 164 214 nan nan nan nan nan nan nan nan nan nan nan nan nan nan nan
nan nan nan nan nan nan 264 266 271 266 278 270 229 190 172 207 240 nan nan nan nan nan nan nan nan nan nan nan nan nan nan nan
nan nan nan nan nan nan nan 276 267 270 242 198 162 186 212 229 234 260 nan nan nan nan nan nan nan nan nan nan nan nan nan nan
nan nan nan nan nan nan nan 276 261 210 164 139 153 191 271 271 284 281 nan nan nan nan nan nan nan nan nan nan nan nan nan nan
nan nan nan nan 292 191 167 154 159 148 156 172 343 276 284 273 272 nan nan nan nan nan nan nan nan nan nan nan nan nan nan nan
nan 206 88 55 124 92 85 97 132 132 177 227 264 263 260 266 nan nan nan nan nan nan nan nan nan nan nan nan nan nan nan nan
nan 124 41 77 69 70 80 74 243 239 243 256 272 271 265 259 nan nan nan nan nan nan nan nan nan nan nan nan nan nan nan nan
nan 42 39 26 7 3 nan 267 273 276 269 273 281 nan nan 282 nan nan nan nan nan nan nan nan nan nan nan nan nan nan nan nan
10 4 360 346 340 nan 291 277 270 264 281 280 269 nan nan nan nan nan nan nan nan nan nan nan nan nan nan nan nan nan nan nan
5 353 347 337 330 308 308 290 288 287 279 269 nan nan nan nan nan nan nan nan nan nan nan nan nan nan nan nan nan nan nan nan
352 359 349 317 315 316 296 289 279 266 259 nan nan nan nan nan nan nan nan nan nan nan nan nan nan nan nan nan nan nan nan nan
341 349 340 315 304 314 304 307 280 275 278 nan nan nan nan nan nan nan nan nan nan nan nan nan nan nan nan nan nan nan nan nan
337 341 338 323 315 310 315 307 297 289 289 nan nan nan nan nan nan nan nan nan nan nan nan nan nan nan nan nan nan nan nan nan
343 339 338 333 327 323 329 314 281 302 320 nan nan nan nan nan nan nan nan nan nan nan nan nan nan nan nan nan nan nan nan nan